Weather in Puerto Iguazú

Argentina     25°36′55″S   54°34′38″W
temp.,
°C
wind,
m/s
gust,
m/s
humid.,
%
clouds,
%
prec.,
mm/h
press.,
hPa
HPBL,
m
17 june, thu
thu1700:00+10s2790100 0.0 1023215
03:00+11s2582100 0.0 1021230
06:00+10s2583100 0.0 1021210
09:00+11s367569 0.0 1024346
12:00+16s245179 0.0 1023802
15:00+17ssw234799 0.0 1021808
18:00+14sw2760100 0.0 1022332
21:00+12ssw2763100 0.0 1023313
18 june, fri
fri1800:00+11s2569100 0.0 1023202
03:00+10s237488 0.0 102293
06:00+11ssw1272100 0.0 1022114
09:00+12s2370100 0.0 1024172
12:00+15nw1159100 0.0 1024302
15:00+15sw016071 0.0 1021234
18:00+13s0075100 0.2 102121
21:00+12e0191100 0.9 102229
19 june, sat
sat1900:00+12se239779 0.8 1021141
03:00+12se019899 1.6 101951
06:00+12w0199100 2.2 101973
09:00+12wsw2699100 13.8 1021398
12:00+12sw1499100 8.7 1022292
15:00+12sw2498100 10.6 1020298
18:00+12sw2598100 0.4 1021323
21:00+12ssw1598100 0.4 1022340
20 june, sun
sun2000:00+11ssw1498100 0.0 1022253
03:00+11ssw2598100 0.1 1022288
06:00+11s2596100 0.0 1022343
09:00+12sse1393100 0.1 1022184
12:00+15se2371100 0.0 1022860
15:00+19s1358100 0.0 10191059
18:00+14ene1183100 0.0 101913
21:00+12se2292100 0.0 102041
21 june, mon
mon2100:00+13e2985100 0.0 1019296
03:00+13e1383100 0.1 1018121
06:00+13e0195100 0.8 101825
09:00+13ese1398100 2.7 1020126
12:00+14ne1497100 2.3 1019218
15:00+15n1499100 4.3 1017261
18:00+15ne129999 3.5 101771
21:00+15ese0099100 4.1 101832